Arden, NC

12:44 PM EST on February 22, 2017 (GMT -0500)
Asheville Regional

Weather History for KAVL - December, 2007

Change the Weather History Date:

Sunday, December 16, 2007

  Actual Average Record
Temperature  
Mean Temperature 35 °F 39 °F  
Max Temperature 43 °F 49 °F 71 °F (1971)
Min Temperature 27 °F 29 °F 4 °F (1914)
Degree Days  
Heating Degree Days 30 26  
Month to date heating degree days 292 388  
Since 1 July heating degree days 1100 1255  
Cooling Degree Days 0 0  
Month to date cooling degree days 0 0  
Year to date cooling degree days 984 863  
Moisture  
Dew Point 29 °F    
Average Humidity 74    
Maximum Humidity 100    
Minimum Humidity 48    
Precipitation  
Precipitation 0.06 in 0.11 in 1.60 in (1874)
Month to date precipitation 0.85 2.02  
Year to date precipitation 31.18 44.00  
Snow  
Snow 0.00 in 0.10 in 4.00 in (1932)
Month to date snowfall T 0.3  
Since 1 July snowfall T 0.4  
Snow Depth -    
Sea Level Pressure  
Sea Level Pressure 29.71 in    
Wind  
Wind Speed 14 mph (NW)    
Max Wind Speed 28 mph    
Max Gust Speed 35 mph    
Visibility 8 miles    
Events Rain    
T = Trace of Precipitation, MM = Missing Value Source: NWS Daily Summary

Daily Weather History Graph

Daily Weather History Graph

Search for Another Location

Airport or City:

Trip Planner

Search our weather history database for the weather conditions in past years. The results will help you decide how hot, cold, wet, or windy it might be!

Date:

Astronomy

Dec. 16, 2007 Rise Set
Actual Time 7:32 AM EST 5:19 PM EST
Civil Twilight 7:04 AM EST 5:47 PM EST
Nautical Twilight 6:32 AM EST 6:19 PM EST
Astronomical Twilight 6:01 AM EST 6:50 PM EST
Moon 12:07 PM EST (12/16) No Moon Set
Length of Visible Light 10h 43m
Length of Day
9h 46m
Waxing Crescent, 42% of the Moon is Illuminated
Dec 16
Waxing Crescent
Dec 17
First Quarter
Dec 23
Full
Dec 31
Last Quarter
Jan 8
New

Hourly Weather History & Observations

Time (EST) Temp. Windchill Dew Point Humidity Pressure Visibility Wind Dir Wind Speed Gust Speed Precip Events Conditions
12:54 AM 37.0 °F 31.6 °F 37.0 °F 100% 29.67 in 5.0 mi South 6.9 mph - 0.01 in Rain Light Rain
1:17 AM 37.4 °F 31.4 °F 37.4 °F 100% 29.65 in 4.0 mi South 8.1 mph - 0.00 in   Overcast
1:37 AM 37.4 °F 30.8 °F 37.4 °F 100% 29.63 in 4.0 mi South 9.2 mph - 0.00 in   Overcast
1:54 AM 37.0 °F 31.0 °F 37.0 °F 100% 29.62 in 3.0 mi SSW 8.1 mph - 0.00 in   Overcast
2:35 AM 37.4 °F 32.1 °F 37.4 °F 100% 29.61 in 2.5 mi SSE 6.9 mph - N/A   Overcast
2:42 AM 37.4 °F 31.4 °F 37.4 °F 100% 29.60 in 2.5 mi SSE 8.1 mph - N/A   Overcast
2:54 AM 37.0 °F 29.8 °F 37.0 °F 100% 29.60 in 2.0 mi SSE 10.4 mph - N/A   Overcast
3:18 AM 37.4 °F 31.4 °F 37.4 °F 100% 29.59 in 4.0 mi SSE 8.1 mph - 0.00 in Rain Light Rain
3:24 AM 37.4 °F 31.4 °F 37.4 °F 100% 29.59 in 5.0 mi South 8.1 mph - 0.00 in Rain Light Rain
3:54 AM 37.0 °F 30.4 °F 37.0 °F 100% 29.59 in 7.0 mi SE 9.2 mph - 0.05 in Rain Light Rain
4:10 AM 37.4 °F 30.8 °F 37.4 °F 100% 29.57 in 10.0 mi SE 9.2 mph - 0.00 in   Overcast
4:32 AM 37.4 °F 32.1 °F 37.4 °F 100% 29.55 in 10.0 mi Variable 6.9 mph - 0.00 in   Overcast
4:54 AM 39.0 °F 34.0 °F 37.0 °F 93% 29.55 in 10.0 mi ESE 6.9 mph - 0.00 in   Overcast
5:54 AM 39.9 °F 32.9 °F 39.0 °F 97% 29.55 in 10.0 mi SSW 11.5 mph - N/A   Overcast
6:54 AM 39.0 °F 34.8 °F 39.0 °F 100% 29.56 in 10.0 mi NNW 5.8 mph - N/A   Overcast
7:31 AM 39.2 °F 31.2 °F 37.4 °F 93% 29.57 in 10.0 mi NW 13.8 mph - N/A   Scattered Clouds
7:54 AM 43.0 °F 36.4 °F 30.9 °F 62% 29.59 in 10.0 mi WNW 12.7 mph - N/A   Clear
8:54 AM 42.1 °F 34.5 °F 36.0 °F 79% 29.62 in 10.0 mi NNW 15.0 mph - N/A   Scattered Clouds
8:56 AM 42.8 °F 35.4 °F 35.6 °F 76% 29.62 in 10.0 mi NNW 15.0 mph - N/A   Mostly Cloudy
9:52 AM 39.2 °F 31.6 °F 30.2 °F 70% 29.66 in 10.0 mi North 12.7 mph 21.9 mph N/A   Mostly Cloudy
9:54 AM 39.9 °F 32.1 °F 30.9 °F 70% 29.68 in 10.0 mi NNW 13.8 mph 20.7 mph N/A   Mostly Cloudy
10:54 AM 41.0 °F 31.9 °F 25.0 °F 53% 29.72 in 10.0 mi NW 19.6 mph 34.5 mph N/A   Partly Cloudy
11:54 AM 39.9 °F 31.8 °F 25.0 °F 55% 29.75 in 10.0 mi NNW 15.0 mph 21.9 mph N/A   Mostly Cloudy
12:54 PM 37.9 °F 27.9 °F 21.9 °F 53% 29.77 in 10.0 mi NNW 19.6 mph 27.6 mph N/A   Partly Cloudy
1:54 PM 37.0 °F 26.4 °F 19.9 °F 50% 29.78 in 10.0 mi NNW 20.7 mph 27.6 mph N/A   Clear
2:54 PM 36.0 °F 24.7 °F 19.9 °F 52% 29.82 in 10.0 mi NNW 21.9 mph 28.8 mph N/A   Partly Cloudy
3:54 PM 34.0 °F 22.4 °F 19.9 °F 56% 29.85 in 10.0 mi NNW 20.7 mph 26.5 mph N/A   Partly Cloudy
4:54 PM 32.0 °F 22.1 °F 18.0 °F 56% 29.88 in 10.0 mi NNW 13.8 mph - N/A   Scattered Clouds
5:54 PM 30.0 °F 21.7 °F 19.0 °F 64% 29.91 in 10.0 mi North 9.2 mph 20.7 mph N/A   Scattered Clouds
6:54 PM 28.9 °F 16.9 °F 17.1 °F 61% 29.94 in 10.0 mi NNW 17.3 mph 24.2 mph N/A   Clear
7:54 PM 28.0 °F 17.0 °F 16.0 °F 61% 29.95 in 10.0 mi NW 13.8 mph 20.7 mph N/A   Mostly Cloudy
8:54 PM 28.0 °F 15.7 °F 17.1 °F 63% 29.97 in 10.0 mi NNW 17.3 mph 24.2 mph N/A   Partly Cloudy
9:54 PM 27.0 °F 15.6 °F 17.1 °F 66% 29.99 in 10.0 mi NNW 13.8 mph 18.4 mph N/A   Mostly Cloudy
10:54 PM 27.0 °F 13.9 °F 12.9 °F 56% 30.01 in 10.0 mi NW 18.4 mph 27.6 mph N/A   Clear
11:54 PM 27.0 °F 14.3 °F 10.9 °F 51% 30.01 in 10.0 mi North 17.3 mph 27.6 mph N/A   Clear